Location: Zagreb
(45.8000°N, 16.0000°E)
Time: 17:24:18
(UTC+01:00)

Tiros 1 despin weight - Pass Details

Date: 04 February 2020
Orbit: 594 x 642 km, 48.2° (Epoch: 25 February)

Event Time Altitude Azimuth Distance (km) Brightness Sun altitude
Rises 11:43:10 0° 287° (WNW) 2,862 ? 27.6°
Reaches altitude 10° 11:45:27 10° 287° (WNW) 1,964 ? 27.6°
Maximum altitude 11:49:58 89° 224° (SW) 621 ? 27.7°
Drops below altitude 10° 11:54:33 10° 109° (ESE) 1,990 ? 27.8°
Sets 11:56:53 0° 110° (ESE) 2,903 ? 27.8°
